Location: Krakow
(50.0830°N, 19.9170°E)
Time: 10:20:23
(UTC+01:00)

Transit 2A - Pass Details

Date: 10 February 2023
Orbit: 591 x 964 km, 66.7° (Epoch: 21 March)

Event Time Altitude Azimuth Distance (km) Brightness Sun altitude
Rises 18:33:56 0° 289° (WNW) 3,238 10.6 -17.2°
Reaches altitude 10° 18:37:12 10° 311° (NW) 2,392 9.2 -17.7°
Maximum altitude 18:40:38 16° 349° (N) 2,054 8.3 -18.3°
Drops below altitude 10° 18:44:15 10° 27° (NNE) 2,547 8.4 -18.8°
Enters shadow 18:44:43 - 31° (NNE) 2,655 8.5 -18.9°
Sets 18:47:55 0° 48° (NE) 3,554 - -19.4°
